Weather History for KOWA - October, 2013

Change the Weather History Date:

Wednesday, October 2, 2013

  Actual Average Record
Temperature  
Mean Temperature 60 °F -  
Max Temperature 77 °F 70 °F 109 °F (1998)
Min Temperature 42 °F 43 °F 19 °F (1974)
Degree Days  
Heating Degree Days 6    
Growing Degree Days 10 (Base 50)    
Moisture  
Dew Point 40 °F    
Average Humidity 53    
Maximum Humidity 94    
Minimum Humidity 18    
Precipitation  
Precipitation 0.53 in - - ()
Sea Level Pressure  
Sea Level Pressure 29.97 in    
Wind  
Wind Speed 6 mph (SE)    
Max Wind Speed 18 mph    
Max Gust Speed 29 mph    
Visibility 10 miles    
Events Rain , Thunderstorm    
Averages and records for this station are not official NWS values.
T = Trace of Precipitation, MM = Missing Value Source: NWS Daily Summary

Daily Weather History Graph

Daily Weather History Graph

Search for Another Location

Airport or City:

Trip Planner

Search our weather history database for the weather conditions in past years. The results will help you decide how hot, cold, wet, or windy it might be!

Date:

Astronomy

Oct. 02, 2013 Rise Set
Actual Time 7:12 AM CDT 6:51 PM CDT
Civil Twilight 6:43 AM CDT 7:20 PM CDT
Nautical Twilight 6:09 AM CDT 7:53 PM CDT
Astronomical Twilight 5:35 AM CDT 8:27 PM CDT
Moon 4:41 AM CDT (10/2) 5:30 PM CDT (10/2)
Length of Visible Light 12h 36m
Length of Day
11h 39m
Waning Crescent, 6% of the Moon is Illuminated
Oct 2
Waning Crescent
Oct 4
New
Oct 11
First Quarter
Oct 18
Full
Oct 26
Last Quarter

Hourly Weather History & Observations

Time (CDT) Temp. Windchill Dew Point Humidity Pressure Visibility Wind Dir Wind Speed Gust Speed Precip Events Conditions
12:14 AM 44.6 °F - 39.2 °F 81% 30.02 in 10.0 mi Calm Calm - N/A   Clear
12:34 AM 42.8 °F - 39.2 °F 87% 30.03 in 10.0 mi Calm Calm - N/A   Clear
12:54 AM 44.6 °F 43.1 °F 41.0 °F 87% 30.03 in 10.0 mi ESE 3.5 mph - N/A   Clear
1:14 AM 44.6 °F 43.1 °F 42.8 °F 93% 30.03 in 10.0 mi East 3.5 mph - N/A   Clear
1:34 AM 44.6 °F 43.1 °F 41.0 °F 87% 30.04 in 10.0 mi SE 3.5 mph - N/A   Clear
1:54 AM 42.8 °F - 39.2 °F 87% 30.03 in 10.0 mi Calm Calm - N/A   Clear
2:14 AM 42.8 °F - 39.2 °F 87% 30.04 in 10.0 mi Calm Calm - N/A   Clear
2:34 AM 42.8 °F - 39.2 °F 87% 30.04 in 10.0 mi Calm Calm - N/A   Clear
2:54 AM 42.8 °F - 39.2 °F 87% 30.04 in 10.0 mi Calm Calm - N/A   Clear
3:14 AM 42.8 °F - 37.4 °F 81% 30.04 in 10.0 mi Calm Calm - N/A   Clear
3:34 AM 42.8 °F - 39.2 °F 87% 30.04 in 10.0 mi Calm Calm - N/A   Clear
3:54 AM 42.8 °F 41.1 °F 39.2 °F 87% 30.05 in 10.0 mi SE 3.5 mph - N/A   Clear
4:14 AM 42.8 °F 41.1 °F 39.2 °F 87% 30.04 in 10.0 mi ESE 3.5 mph - N/A   Clear
4:34 AM 42.8 °F 41.1 °F 39.2 °F 87% 30.04 in 10.0 mi ESE 3.5 mph - N/A   Clear
4:54 AM 42.8 °F 41.1 °F 39.2 °F 87% 30.04 in 10.0 mi SE 3.5 mph - N/A   Clear
5:14 AM 42.8 °F 41.1 °F 37.4 °F 81% 30.04 in 10.0 mi ESE 3.5 mph - N/A   Clear
5:34 AM 42.8 °F - 39.2 °F 87% 30.04 in 10.0 mi Calm Calm - N/A   Clear
5:54 AM 44.6 °F 42.2 °F 37.4 °F 76% 30.04 in 10.0 mi ESE 4.6 mph - N/A   Clear
6:14 AM 46.4 °F 43.5 °F 37.4 °F 71% 30.05 in 10.0 mi ESE 5.8 mph - N/A   Clear
6:34 AM 46.4 °F 43.5 °F 37.4 °F 71% 30.05 in 10.0 mi ESE 5.8 mph - N/A   Clear
6:54 AM 46.4 °F 43.5 °F 37.4 °F 71% 30.05 in 10.0 mi East 5.8 mph - N/A   Clear
7:14 AM 46.4 °F 43.5 °F 37.4 °F 71% 30.05 in 10.0 mi ESE 5.8 mph - N/A   Clear
7:34 AM 46.4 °F 43.5 °F 37.4 °F 71% 30.05 in 10.0 mi ESE 5.8 mph - N/A   Clear
7:54 AM 48.2 °F - 39.2 °F 71% 30.06 in 10.0 mi SE 4.6 mph - N/A   Clear
8:14 AM 51.8 °F - 39.2 °F 62% 30.06 in 10.0 mi ESE 4.6 mph - N/A   Clear
8:34 AM 53.6 °F - 41.0 °F 62% 30.06 in 10.0 mi ESE 5.8 mph - N/A   Clear
8:54 AM 57.2 °F - 39.2 °F 51% 30.06 in 10.0 mi East 4.6 mph - N/A   Clear
9:14 AM 60.8 °F - 39.2 °F 45% 30.06 in 10.0 mi SE 4.6 mph - N/A   Clear
9:34 AM 62.6 °F - 41.0 °F 45% 30.06 in 10.0 mi SE 8.1 mph - N/A   Clear
9:54 AM 64.4 °F - 37.4 °F 37% 30.06 in 10.0 mi ESE 9.2 mph - N/A   Clear
10:14 AM 64.4 °F - 37.4 °F 37% 30.06 in 10.0 mi ESE 8.1 mph - N/A   Clear
10:34 AM 66.2 °F - 37.4 °F 35% 30.05 in 10.0 mi SE 10.4 mph - N/A   Clear
10:54 AM 69.8 °F - 35.6 °F 28% 30.04 in 10.0 mi ESE 10.4 mph - N/A   Clear
11:14 AM 71.6 °F - 33.8 °F 25% 30.04 in 10.0 mi ESE 12.7 mph 20.7 mph N/A   Clear
11:34 AM 71.6 °F - 33.8 °F 25% 30.04 in 10.0 mi ESE 15.0 mph 21.9 mph N/A   Clear
11:54 AM 73.4 °F - 33.8 °F 23% 30.03 in 10.0 mi SE 15.0 mph 23.0 mph N/A   Scattered Clouds
12:14 PM 73.4 °F - 33.8 °F 23% 30.03 in 10.0 mi ESE 15.0 mph 18.4 mph N/A   Scattered Clouds
12:34 PM 75.2 °F - 33.8 °F 22% 30.02 in 10.0 mi ESE 17.3 mph 20.7 mph N/A   Scattered Clouds
12:54 PM 75.2 °F - 33.8 °F 22% 30.01 in 10.0 mi ESE 17.3 mph - N/A   Clear
1:14 PM 75.2 °F - 33.8 °F 22% 30.00 in 10.0 mi SE 13.8 mph 20.7 mph N/A   Scattered Clouds
1:34 PM 75.2 °F - 32.0 °F 21% 29.99 in 10.0 mi SE 15.0 mph 19.6 mph N/A   Clear
1:54 PM 75.2 °F - 32.0 °F 21% 29.98 in 10.0 mi SE 13.8 mph 20.7 mph N/A   Clear
2:14 PM 77.0 °F - 30.2 °F 18% 29.97 in 10.0 mi SE 17.3 mph 23.0 mph N/A   Clear
2:34 PM 75.2 °F - 32.0 °F 21% 29.96 in 10.0 mi SSE 15.0 mph 20.7 mph N/A   Clear
2:54 PM 75.2 °F - 33.8 °F 22% 29.95 in 10.0 mi SE 11.5 mph 21.9 mph N/A   Scattered Clouds
3:14 PM 75.2 °F - 33.8 °F 22% 29.94 in 10.0 mi SE 15.0 mph 19.6 mph N/A   Scattered Clouds
3:34 PM 77.0 °F - 33.8 °F 21% 29.93 in 10.0 mi SSE 17.3 mph 20.7 mph N/A   Clear
3:54 PM 77.0 °F - 35.6 °F 22% 29.91 in 10.0 mi SSE 16.1 mph 21.9 mph N/A   Clear
4:14 PM 77.0 °F - 35.6 °F 22% 29.90 in 10.0 mi SE 13.8 mph 25.3 mph N/A   Clear
4:34 PM 75.2 °F - 37.4 °F 25% 29.89 in 10.0 mi SE 11.5 mph 20.7 mph N/A   Clear
4:54 PM 75.2 °F - 39.2 °F 27% 29.89 in 10.0 mi SE 16.1 mph 23.0 mph N/A   Clear
5:14 PM 75.2 °F - 42.8 °F 31% 29.89 in 10.0 mi SSE 10.4 mph 26.5 mph N/A   Scattered Clouds
5:34 PM 75.2 °F - 42.8 °F 31% 29.89 in 10.0 mi SSE 10.4 mph - N/A   Clear
5:54 PM 75.2 °F - 42.8 °F 31% 29.88 in 10.0 mi SE 10.4 mph - N/A   Scattered Clouds
6:14 PM 75.2 °F - 44.6 °F 34% 29.87 in 10.0 mi SE 12.7 mph 17.3 mph N/A   Scattered Clouds
6:34 PM 73.4 °F - 44.6 °F 36% 29.86 in 10.0 mi SE 11.5 mph - N/A   Clear
6:54 PM 73.4 °F - 44.6 °F 36% 29.85 in 10.0 mi SE 10.4 mph 17.3 mph N/A   Clear
7:14 PM 73.4 °F - 44.6 °F 36% 29.86 in 10.0 mi SE 12.7 mph 17.3 mph N/A Thunderstorm Scattered Clouds
7:34 PM 71.6 °F - 46.4 °F 41% 29.85 in 10.0 mi SE 15.0 mph 20.7 mph N/A   Scattered Clouds
7:54 PM 71.6 °F - 46.4 °F 41% 29.85 in 10.0 mi SE 11.5 mph 20.7 mph N/A Thunderstorm Scattered Clouds
8:14 PM 71.6 °F - 46.4 °F 41% 29.85 in 10.0 mi SSE 15.0 mph 18.4 mph N/A Thunderstorm Scattered Clouds
8:34 PM 71.6 °F - 46.4 °F 41% 29.84 in 10.0 mi SE 11.5 mph - N/A Thunderstorm Clear
8:54 PM 71.6 °F - 48.2 °F 43% 29.84 in 10.0 mi SE 13.8 mph 19.6 mph N/A   Clear
9:14 PM 71.6 °F - 48.2 °F 43% 29.84 in 10.0 mi SE 13.8 mph - N/A   Clear
9:34 PM 69.8 °F - 48.2 °F 46% 29.84 in 10.0 mi SE 13.8 mph - N/A   Clear
9:54 PM 69.8 °F - 48.2 °F 46% 29.84 in 10.0 mi SSE 12.7 mph 19.6 mph N/A   Clear
10:14 PM 69.8 °F - 50.0 °F 49% 29.84 in 10.0 mi SSE 12.7 mph 19.6 mph N/A   Scattered Clouds
10:34 PM 66.2 °F - 53.6 °F 64% 29.85 in 10.0 mi SE 6.9 mph - N/A Rain , Thunderstorm Rain
10:54 PM 64.4 °F - 57.2 °F 77% 29.85 in 10.0 mi NE 8.1 mph - N/A Thunderstorm Mostly Cloudy
11:14 PM 60.8 °F - 55.4 °F 82% 29.94 in 10.0 mi NW 18.4 mph 26.5 mph N/A Rain , Thunderstorm Light Thunderstorms and Rain
11:34 PM 57.2 °F - 55.4 °F 94% 29.94 in 2.5 mi North 11.5 mph 28.8 mph 0.24 in Rain , Thunderstorm Heavy Thunderstorms and Rain
11:55 PM 57.2 °F - 55.4 °F 94% 29.93 in 7.0 mi NNE 4.6 mph - 0.53 in Rain , Thunderstorm Heavy Thunderstorms and Rain